Other Public Products
Issued by NWS Grand Forks, ND

Home | Current Version | Previous Version | Graphics & Text | Print | Product List | Glossary On
Versions: 1 2 3 4 5 6 7 8 9 10 11 12 13 14 15 16 17 18 19 20 21 22 23 24 25 26 27 28 29 30 31 32 33 34 35 36 37 38 39 40 41 42 43 44 45 46 47 48 49 50
000
FPUS83 KFGF 282210
OPUFGF
PRAIRIE TO PINES WEATHER ROUNDUP
NATIONAL WEATHER SERVICE EASTERN NORTH DAKOTA/GRAND FORKS ND
500 PM CDT THU MAY 28 2015

 **SATELLITE DATA USED TO AUGMENT SKY COVER AT AUTOMATED STATIONS**
 *****  WEATHER ACROSS EASTERN NORTH DAKOTA  *****

CITY           SKY/WX    TMP DP  RH WIND       PRES   REMARKS
GRAND FORKS    TSTM      68  62  81 SW22G32   29.78R
GRAND FORKS AF PTSUNNY   68  59  73 S21G29    29.78S
GRAND CITY NWS   N/A     66 N/A N/A W21         N/A
BUXTON         NOT AVBL
DEVILS LAKE    PTSUNNY   75  57  53 W13       29.80S
FARGO          HVY RAIN  66  61  84 W32G40    29.80R
WAHPETON ARPT  PTCLDY    82  54  36 S25G31    29.79F
$$

 *****  WEATHER ACROSS CENTRAL AND WESTERN NORTH DAKOTA  *****

CITY           SKY/WX    TMP DP  RH WIND       PRES   REMARKS
JAMESTOWN      PTSUNNY   75  62  64 W13       29.79F
BISMARCK       PTSUNNY   78  55  44 W7        29.83F
MINOT          PTSUNNY   68  56  65 NW13      29.86R
MINOT AFB      PTSUNNY   70  67  90 N7        29.85S
GARRISON         N/A     72  56  57 N6        29.85S
WILLISTON      PTSUNNY   73  53  49 N18       29.89R
DICKINSON      MOSUNNY   73  56  54 N20       29.86S
HETTINGER      PTSUNNY   71  51  49 N7        29.89F
$$

 *****  OTHER OBSERVATIONS NORTHEAST NORTH DAKOTA  *****

CITY           SKY/WX    TMP DP  RH WIND       PRES   REMARKS
WALHALLA         N/A     70  70 100 MISG      29.80S
LANGDON        FAIR      75  59  57 W14G21    29.81F
CAVALIER       NOT AVBL
GRAFTON        CLOUDY    72  66  83 NW29G35   29.78R THUNDER VSB 1
CANDO          MOCLDY    75  59  57 W7        29.82F
FORT TOTTEN      N/A     80  61  52 NW6       29.95S
ROLLA          CLOUDY    66  61  82 N14       29.85S
RUGBY          NOT AVBL
 ***** THE ABOVE OBSERVATIONS ARE NON NWS ARE NOT QUALITY
        CONTROLLED AND MAY MIS-REPORT RAIN FOR SNOW...
$$

 *****  OTHER OBSERVATIONS SOUTHEAST NORTH DAKOTA *****

CITY           SKY/WX    TMP DP  RH WIND       PRES   REMARKS
COOPERSTOWN    NOT AVBL
VALLEY CITY    FAIR      73  66  78 W12       29.80F
OAKES          LGT RAIN  73  64  73 W21G30    29.79S
GWINNER        NOT AVBL
BUFFALO        NOT AVBL
WYNDMERE         N/A     82  57  42 S23         N/A
 ***** THE ABOVE OBSERVATIONS ARE NON NWS ARE NOT QUALITY
       CONTROLLED AND MAY MIS-REPORT RAIN FOR SNOW...
$$

  *****  WEATHER ACROSS NORTHERN MINNESOTA  *****

CITY           SKY/WX    TMP DP  RH WIND       PRES   REMARKS
FLAG ISLAND    PTSUNNY   59  55  88 S7        29.83F
WARROAD        MOSUNNY   66  61  82 NE8       29.83F
ROSEAU         PTSUNNY   72  61  68 CALM      29.81F
HALLOCK        LGT RAIN  72  64  78 E7        29.77F
THF RVR FALLS  CLOUDY    64  61  88 S30       29.78F THUNDER
HALSTAD        NOT AVBL
FOSSTON        MOSUNNY   75  57  53 S23G29    29.80S
BAUDETTE       PTSUNNY   66  60  81 SE8       29.84F
WASKISH        PTSUNNY   66  63  88 CALM      29.84F THUNDER
CROOKSTON      TSTM      73  66  78 W13       29.76F
$$
  *****  WEATHER ACROSS CENTRAL AND WEST MINNESOTA  *****

CITY           SKY/WX    TMP DP  RH WIND       PRES   REMARKS
BEMIDJI        MOSUNNY   78  54  43 S17G25    29.83F
PARK RAPIDS    MOSUNNY   84  45  25 S26G35    29.85F
WADENA         MOSUNNY   81  54  39 S23G33    29.87F
DETROIT LAKES  MOSUNNY   79  55  44 S17G23    29.83F
MOORHEAD       PTSUNNY   81  57  44 S12G18    29.77F
FERGUS FALLS   MOSUNNY   82  57  42 S24G30    29.82F
ELBOW LAKE     FAIR      82  55  39 S24       29.84F
MORRIS MN      MOSUNNY   84  52  32 S20G26    29.84F
STAPLES        PTSUNNY   81  50  34 S20       29.89F
WHEATON        MOSUNNY   82  55  39 S22G32    29.82F
$$
  *****  WEATHER ELSEWHERE ACROSS MINNESOTA  *****

CITY           SKY/WX    TMP DP  RH WIND       PRES   REMARKS
DULUTH         MOSUNNY   49  44  83 E14       29.99F
INTRNTL FALLS  PTSUNNY   63  55  75 N8        29.87F
ELY            NOT AVBL
CLOQUET        MOSUNNY   55  45  67 E10       29.98F
BRAINERD       CLOUDY    78  52  40 S15       29.91F
HIBBING        MOSUNNY   78  53  41 S10G18    29.90F
ALEXANDRIA     PTSUNNY   81  51  35 S18G24    29.90F
SAINT CLOUD    CLOUDY    80  53  39 S16G28    29.92F
MINNEAPOLIS    PTSUNNY   83  48  29 S23       29.97F
$$

  *****  WEATHER ACROSS SOUTH DAKOTA  *****

CITY           SKY/WX    TMP DP  RH WIND       PRES   REMARKS
SIOUX FALLS    PTSUNNY   79  58  48 S25G33    29.89F
BROOKINGS      PTSUNNY   81  57  44 S16G24    29.88F
WATERTOWN      MOSUNNY   81  59  47 S21G30    29.85F
HURON            N/A    N/A N/A N/A MISG      29.81F
SISSETON         N/A     84  58  40 S30G37    29.79F
ABERDEEN       PTSUNNY   86  58  38 SW20G29   29.77F
MITCHELL       PTSUNNY   85  56  37 S23G29    29.83F
PIERRE         TSTM      72  56  57 S15G29    29.82R
MOBRIDGE       MOSUNNY   81  57  43 N7        29.78F
RAPID CITY     PTSUNNY   68  54  60 N13       29.91S
$$

  *****  SOME WEATHER IN NEARBY STATES *****

CITY           SKY/WX    TMP DP  RH WIND       PRES   REMARKS
GLASGOW MT     TSTM      60  52  74 N16       30.00R
GREAT FALLS MT CLOUDY    55  51  86 N18       30.18R
CHEYENNE WY    PTSUNNY   67  36  31 NW14G24   30.02F
SCOTTSBLUFF NE CLOUDY    73  48  41 W6        29.92F
OMAHA NE       CLOUDY    71  65  81 S13       29.96F
DES MOINES IA  CLOUDY    74  63  68 S14       30.03F
DAVENPORT IA   MOSUNNY   83  51  33 S13       30.07F
CHICAGO IL     PTSUNNY   81  54  39 SE10      30.12F
EAU CLAIRE WI  MOSUNNY   82  55  39 S15G22    30.02F
LA CROSSE WI   MOSUNNY   83  53  35 S13G23    30.04F
$$

  *****  SOME NATIONAL WEATHER *****

CITY           SKY/WX    TMP DP  RH WIND       PRES   REMARKS
LA GUARDIA NY  CLOUDY    81  64  56 S8        30.11R
RALEIGH NC     MOSUNNY   85  66  53 CALM      30.15F
ATLANTA GA     CLOUDY    72  66  81 CALM      30.18S
NEW ORLEANS LA MOSUNNY   88  68  51 VRB5      30.04F HX  91
OKLAHOMA CITY  CLOUDY    76  70  82 S25G32    29.97R
ALBUQUERQUE NM MOSUNNY   82  25  12 S13       30.01F
SALT LAKE CITY PTSUNNY   69  45  41 N14       30.09R
LOS ANGELES CA MOSUNNY   65  56  72 W12       29.97F
BOISE ID       SUNNY     78  42  27 W7        30.05F
SEATTLE WA     MOSUNNY   79  54  41 NW8       30.03F
$$

*** WEATHER ACROSS MANITOBA...SASKATCHEWAN AND ONTARIO ***
                ***ONTARIO***

CITY           SKY/WX    TMP DP  RH WIND       PRES   REMARKS
GERALDTON      CLOUDY    59  41  51 SE5       30.10S
THUNDER BAY    CLOUDY    50  45  81 E12       30.08F
SIOUX LOOKOUT  LGT RAIN  54  54 100 S9        29.90F FOG
TORONTO        MOSUNNY   75  54  46 SE10      30.22F
BIG TROUT LK   CLOUDY    54  30  40 E10G22    30.06S
PICKLE LAKE    LGT RAIN  46  43  87 SE9       29.98F FOG
DRYDEN         CLOUDY    57  54  88 S8        29.89F
KENORA         CLOUDY    61  59  94 S5        29.86F
$$
                *** MANITOBA***

CITY           SKY/WX    TMP DP  RH WIND       PRES   REMARKS
BRANDON        CLOUDY    68  54  60 N8        29.85S
DAUPHIN        CLOUDY    57  48  72 NE23G31   29.89R
ISLAND LAKE    LGT RAIN  57  43  58 E7        29.87F
PILOT MOUND      N/A     66  59  77 NW13        N/A
THE PAS        DRIZZLE   43  41  93 N20G26    30.08R
THOMPSON       LGT SNOW  36  34  93 NE15      30.14S
WINNIPEG       CLOUDY    63  59  88 N14       29.82F
LYNN LAKE      MIX PCPN  36  32  87 N16G30    30.26R
CHURCHILL      CLOUDY    30  27  86 NE14      30.38S WCI  20
GILLAM         LGT SNOW  30  28  93 NE14G23   30.21R VSB 3/4 WCI  20
$$
                ***SASKATCHEWAN***

CITY           SKY/WX    TMP DP  RH WIND       PRES   REMARKS
ESTEVAN        CLOUDY    70  54  56 N7        29.91S
KINDERSLEY     MOSUNNY   55  32  41 N16G29    30.22R
LLOYDMINSTER   MOSUNNY   52  28  40 NE16G28   30.28S
PRINCE ALBERT  NOT AVBL
REGINA         CLOUDY    54  43  66 N28G37    30.06R
YORKTON        CLOUDY    48  43  81 N24G35    30.01R



USA.gov is the U.S. government's official web portal to all federal, state and local government web resources and services.